This is the latest recevied weather packets stored in our database for station/object DG2US-10. If no packets are shown the sender has not sent any weather packets the latest 1 day(s).
| Time | Temp. | Humidity | Pressure | Rain* | Wind** | Luminosity | Snow |
|---|---|---|---|---|---|---|---|
| 1777769732 | 15.56° C | 32% | 1015.7 hPa | - | - | - | - |
| 1777768832 | 15.56° C | 31% | 1015.8 hPa | - | - | - | - |
| 1777767932 | 16.11° C | 31% | 1015.8 hPa | - | - | - | - |
| 1777767032 | 16.11° C | 32% | 1015.8 hPa | - | - | - | - |
| 1777766132 | 16.11° C | 31% | 1016 hPa | - | - | - | - |
| 1777765232 | 16.67° C | 31% | 1016 hPa | - | - | - | - |
| 1777764332 | 17.22° C | 30% | 1016.2 hPa | - | - | - | - |
| 1777763432 | 17.78° C | 30% | 1016.4 hPa | - | - | - | - |
| 1777762532 | 17.78° C | 30% | 1016.4 hPa | - | - | - | - |
| 1777761632 | 18.33° C | 29% | 1016.5 hPa | - | - | - | - |
| 1777760732 | 18.89° C | 29% | 1016.6 hPa | - | - | - | - |
| 1777759832 | 18.89° C | 29% | 1016.6 hPa | - | - | - | - |
| 1777758932 | 19.44° C | 28% | 1016.6 hPa | - | - | - | - |
| 1777758031 | 20° C | 28% | 1016.7 hPa | - | - | - | - |
| 1777757131 | 20.56° C | 27% | 1016.8 hPa | - | - | - | - |
| 1777756231 | 21.11° C | 27% | 1016.8 hPa | - | - | - | - |
| 1777755331 | 21.67° C | 26% | 1017 hPa | - | - | - | - |
| 1777754431 | 22.22° C | 27% | 1017 hPa | - | - | - | - |
| 1777753531 | 22.22° C | 26% | 1017.1 hPa | - | - | - | - |
| 1777752631 | 22.78° C | 26% | 1017.1 hPa | - | - | - | - |
| 1777751731 | 23.33° C | 26% | 1017.2 hPa | - | - | - | - |
| 1777750831 | 24.44° C | 25% | 1017.2 hPa | - | - | - | - |
| 1777749931 | 25° C | 25% | 1017.2 hPa | - | - | - | - |
| 1777749031 | 25.56° C | 24% | 1017.2 hPa | - | - | - | - |
| 1777748131 | 26.67° C | 24% | 1017.1 hPa | - | - | - | - |
* Rain since midnight (hover to see other rain measurements)
** Current wind speed in m/s (hover to see current wind gust speed)